• In Uzbekistan
  • List of Countries
  • For 7 days
  • Water Temperature
  • Satellite Maps
  • Weather Map
  • Weather Widgets
  • user-avatar
    Login

    Hourly Weather Algiers

    Today, 25 May, Thursday

    Time Temperature Precipitation Wind Pressure Humidity
    00:00 +20°C° 0 mm 4 mps 748 mmHg 80%
    01:00 +20°C° 0.1 mm 4 mps 748 mmHg 77%
    02:00 +20°C° 0.1 mm 4 mps 748 mmHg 74%
    03:00 +21°C° 0.1 mm 4 mps 748 mmHg 71%
    04:00 +22°C° 0.1 mm 4 mps 748 mmHg 69%
    05:00 +24°C° 0.1 mm 3 mps 748 mmHg 66%
    06:00 +25°C° 0.1 mm 3 mps 748 mmHg 63%
    07:00 +28°C° 0.1 mm 3 mps 748 mmHg 55%
    08:00 +30°C° 0.1 mm 3 mps 748 mmHg 47%
    09:00 +33°C° 0.1 mm 3 mps 748 mmHg 39%
    10:00 +34°C° 0 mm 4 mps 748 mmHg 36%
    11:00 +35°C° 0 mm 4 mps 748 mmHg 33%
    12:00 +37°C° 0 mm 4 mps 748 mmHg 30%
    13:00 +36°C° 0 mm 5 mps 747 mmHg 32%
    14:00 +36°C° 0 mm 5 mps 747 mmHg 34%
    15:00 +36°C° 0 mm 6 mps 746 mmHg 35%
    16:00 +34°C° 0 mm 5 mps 746 mmHg 41%
    17:00 +33°C° 0 mm 5 mps 746 mmHg 47%
    18:00 +30°C° 0 mm 5 mps 746 mmHg 53%
    19:00 +29°C° 0 mm 5 mps 747 mmHg 53%
    20:00 +28°C° 0 mm 4 mps 747 mmHg 52%
    21:00 +27°C° 0 mm 4 mps 747 mmHg 52%
    22:00 +26°C° 0 mm 4 mps 747 mmHg 53%
    23:00 +26°C° 0 mm 4 mps 747 mmHg 54%

    Tomorrow, 26 May, Friday

    Time Temperature Precipitation Wind Pressure Humidity
    00:00 +26°C° 0 mm 4 mps 746 mmHg 55%
    01:00 +26°C° 0 mm 4 mps 746 mmHg 55%
    02:00 +26°C° 0 mm 3 mps 746 mmHg 55%
    03:00 +25°C° 0 mm 3 mps 746 mmHg 55%
    04:00 +26°C° 0 mm 3 mps 746 mmHg 55%
    05:00 +27°C° 0 mm 2 mps 746 mmHg 55%
    06:00 +27°C° 0 mm 2 mps 746 mmHg 55%
    07:00 +29°C° 0 mm 2 mps 746 mmHg 48%
    08:00 +31°C° 0 mm 2 mps 746 mmHg 41%
    09:00 +35°C° 0 mm 2 mps 747 mmHg 34%
    10:00 +35°C° 0 mm 3 mps 746 mmHg 33%
    11:00 +36°C° 0 mm 4 mps 746 mmHg 32%
    12:00 +37°C° 0 mm 4 mps 746 mmHg 30%
    13:00 +37°C° 0 mm 4 mps 746 mmHg 31%
    14:00 +37°C° 0 mm 5 mps 745 mmHg 32%
    15:00 +36°C° 0 mm 5 mps 745 mmHg 33%
    16:00 +35°C° 0 mm 5 mps 745 mmHg 38%
    17:00 +33°C° 0 mm 4 mps 745 mmHg 43%
    18:00 +32°C° 0 mm 4 mps 745 mmHg 49%
    19:00 +30°C° 0.2 mm 4 mps 746 mmHg 53%
    20:00 +28°C° 0.2 mm 4 mps 746 mmHg 57%
    21:00 +27°C° 0.2 mm 4 mps 747 mmHg 61%
    22:00 +27°C° 0 mm 4 mps 747 mmHg 60%
    23:00 +27°C° 0 mm 4 mps 747 mmHg 60%

    Day after tomorrow, 27 May, Saturday

    Time Temperature Precipitation Wind Pressure Humidity
    00:00 +27°C° 0 mm 4 mps 747 mmHg 59%
    01:00 +26°C° 0 mm 4 mps 746 mmHg 61%
    02:00 +25°C° 0 mm 3 mps 746 mmHg 63%
    03:00 +24°C° 0 mm 3 mps 746 mmHg 65%
    04:00 +25°C° 0 mm 2 mps 746 mmHg 64%
    05:00 +26°C° 0 mm 2 mps 747 mmHg 63%
    06:00 +26°C° 0 mm 2 mps 747 mmHg 62%
    07:00 +28°C° 0 mm 2 mps 747 mmHg 55%
    08:00 +30°C° 0 mm 2 mps 747 mmHg 48%
    09:00 +32°C° 0 mm 2 mps 747 mmHg 41%
    10:00 +34°C° 0 mm 3 mps 747 mmHg 39%
    11:00 +35°C° 0 mm 3 mps 747 mmHg 38%
    12:00 +36°C° 0 mm 4 mps 747 mmHg 36%
    13:00 +36°C° 0 mm 5 mps 747 mmHg 36%
    14:00 +37°C° 0 mm 5 mps 746 mmHg 36%
    15:00 +38°C° 0 mm 6 mps 746 mmHg 36%
    16:00 +35°C° 0.2 mm 6 mps 746 mmHg 40%
    17:00 +34°C° 0.2 mm 6 mps 746 mmHg 44%
    18:00 +32°C° 0.2 mm 5 mps 746 mmHg 48%
    19:00 +30°C° 0.2 mm 5 mps 746 mmHg 52%
    20:00 +28°C° 0.2 mm 5 mps 746 mmHg 56%
    21:00 +26°C° 0.2 mm 5 mps 747 mmHg 60%
    22:00 +26°C° 0 mm 5 mps 747 mmHg 59%
    23:00 +26°C° 0 mm 4 mps 746 mmHg 58%

    28 May, Sunday

    Time Temperature Precipitation Wind Pressure Humidity
    00:00 +26°C° 0 mm 4 mps 746 mmHg 57%
    01:00 +26°C° 0 mm 4 mps 746 mmHg 55%
    02:00 +26°C° 0 mm 4 mps 746 mmHg 54%
    03:00 +26°C° 0 mm 4 mps 746 mmHg 52%
    04:00 +27°C° 0 mm 4 mps 746 mmHg 52%
    05:00 +28°C° 0 mm 4 mps 747 mmHg 52%
    06:00 +28°C° 0 mm 4 mps 747 mmHg 51%
    07:00 +30°C° 0 mm 3 mps 747 mmHg 45%
    08:00 +33°C° 0 mm 3 mps 747 mmHg 39%
    09:00 +35°C° 0 mm 3 mps 747 mmHg 34%
    10:00 +36°C° 0 mm 3 mps 747 mmHg 33%
    11:00 +37°C° 0 mm 4 mps 747 mmHg 33%
    12:00 +37°C° 0 mm 4 mps 747 mmHg 32%
    13:00 +37°C° 0 mm 4 mps 746 mmHg 34%
    14:00 +37°C° 0 mm 4 mps 746 mmHg 35%
    15:00 +36°C° 0 mm 3 mps 746 mmHg 37%
    16:00 +35°C° 0 mm 3 mps 746 mmHg 42%
    17:00 +33°C° 0 mm 3 mps 745 mmHg 47%
    18:00 +31°C° 0 mm 3 mps 745 mmHg 52%
    19:00 +30°C° 0 mm 3 mps 746 mmHg 51%
    20:00 +29°C° 0 mm 3 mps 746 mmHg 50%
    21:00 +28°C° 0 mm 3 mps 746 mmHg 49%
    22:00 +27°C° 0.1 mm 3 mps 746 mmHg 51%
    23:00 +27°C° 0.1 mm 3 mps 745 mmHg 53%

    29 May, Monday

    Time Temperature Precipitation Wind Pressure Humidity
    00:00 +26°C° 0.1 mm 3 mps 745 mmHg 55%
    01:00 +25°C° 0 mm 4 mps 745 mmHg 59%
    02:00 +23°C° 0 mm 4 mps 745 mmHg 62%
    03:00 +23°C° 0 mm 5 mps 745 mmHg 66%
    04:00 +23°C° 0 mm 5 mps 745 mmHg 65%
    05:00 +25°C° 0 mm 5 mps 746 mmHg 64%
    06:00 +25°C° 0 mm 5 mps 746 mmHg 64%
    07:00 +27°C° 0 mm 5 mps 747 mmHg 60%
    08:00 +28°C° 0 mm 5 mps 747 mmHg 56%
    09:00 +29°C° 0 mm 5 mps 747 mmHg 52%
    10:00 +30°C° 0 mm 6 mps 747 mmHg 52%
    11:00 +30°C° 0 mm 6 mps 747 mmHg 52%
    12:00 +32°C° 0 mm 7 mps 747 mmHg 51%
    13:00 +30°C° 0 mm 6 mps 747 mmHg 55%
    14:00 +29°C° 0 mm 6 mps 746 mmHg 58%
    15:00 +28°C° 0 mm 5 mps 746 mmHg 61%
    16:00 +27°C° 0.4 mm 4 mps 746 mmHg 66%
    17:00 +26°C° 0.4 mm 3 mps 746 mmHg 72%
    18:00 +24°C° 0.4 mm 2 mps 746 mmHg 77%
    19:00 +23°C° 0.8 mm 2 mps 747 mmHg 81%
    20:00 +23°C° 0.8 mm 2 mps 747 mmHg 85%
    21:00 +21°C° 0.8 mm 2 mps 748 mmHg 89%
    22:00 +21°C° 0.5 mm 2 mps 747 mmHg 88%
    23:00 +22°C° 0.5 mm 1 mps 747 mmHg 88%

    30 May, Tuesday

    Time Temperature Precipitation Wind Pressure Humidity
    00:00 +22°C° 0.5 mm 1 mps 747 mmHg 87%
    01:00 +22°C° 0.2 mm 1 mps 747 mmHg 87%
    02:00 +22°C° 0.2 mm 1 mps 747 mmHg 86%
    03:00 +21°C° 0.2 mm 1 mps 747 mmHg 86%
    04:00 +22°C° 0.2 mm 1 mps 747 mmHg 83%
    05:00 +23°C° 0.2 mm 1 mps 747 mmHg 79%
    06:00 +22°C° 0.2 mm 0 mps 747 mmHg 76%
    07:00 +24°C° 0.4 mm 1 mps 748 mmHg 71%
    08:00 +25°C° 0.4 mm 1 mps 748 mmHg 66%
    09:00 +26°C° 0.4 mm 1 mps 748 mmHg 62%
    10:00 +26°C° 1.1 mm 2 mps 748 mmHg 62%
    11:00 +26°C° 1.1 mm 2 mps 748 mmHg 63%
    12:00 +26°C° 1.1 mm 2 mps 748 mmHg 63%
    13:00 +26°C° 2.1 mm 2 mps 748 mmHg 67%
    14:00 +25°C° 2.1 mm 3 mps 748 mmHg 72%
    15:00 +24°C° 2.1 mm 3 mps 747 mmHg 76%
    16:00 +24°C° 1.2 mm 3 mps 748 mmHg 78%
    17:00 +22°C° 1.2 mm 3 mps 748 mmHg 80%
    18:00 +22°C° 1.2 mm 3 mps 748 mmHg 83%
    19:00 +21°C° 0.5 mm 2 mps 749 mmHg 85%
    20:00 +21°C° 0.5 mm 2 mps 749 mmHg 87%
    21:00 +21°C° 0.5 mm 2 mps 749 mmHg 89%
    22:00 +22°C° 0.6 mm 1 mps 749 mmHg 89%
    23:00 +21°C° 0.6 mm 1 mps 749 mmHg 88%
    Show more